Hourly Data Report for September 23, 2017

All times are specified in Local Standard Time (LST). Add 1 hour to adjust for Daylight Saving Time where and when it is observed.

WINNIPEG A CS
MANITOBA

49°55'00.000" N
97°14'58.000" W
238.70 m
502S001
71849
XWG

Download Data

Hourly Data (September 2017)
Hourly Data Report for September 23, 2017
Temp Definition
°C
Dew Point Temp Definition
°C
Rel Hum Definition
%
Wind Dir Definition
10's deg

Wind Spd Definition
km/h
Visibility Definition
km
Stn Press Definition
kPa
Hmdx Definition


Wind Chill Definition


Weather Definition


TIME
00:00 9.8 8.7 93 34 23   98.30     LegendNANA
01:00 9.7 8.5 92 32 29   98.38     LegendNANA
02:00 9.6 8.3 91 32 29   98.40     LegendNANA
03:00 9.9 8.2 89 31 25   98.53     LegendNANA
04:00 9.9 8.2 89 32 22   98.52     LegendNANA
05:00 9.9 8.3 90 29 19   98.70     LegendNANA
06:00 9.9 8.2 89 33 21   98.56     LegendNANA
07:00 9.9 8.1 89 32 13   98.70     LegendNANA
08:00 10.3 8.3 88 32 19   98.77     LegendNANA
09:00 10.9 8.5 85 33 19   98.84     LegendNANA
10:00 11.3 8.0 80 33 18   98.94     LegendNANA
11:00 11.8 8.3 79 34 17   98.93     LegendNANA
12:00 13.4 8.7 73 34 16   98.98     LegendNANA
13:00 13.7 7.7 67 36 18   98.93     LegendNANA
14:00 14.7 8.0 64 32 18   98.97     LegendNANA
15:00 14.9 7.7 62 36 17   99.00     LegendNANA
16:00 14.6 8.3 66 35 16   98.99     LegendNANA
17:00 14.0 8.0 67 2 18   99.03     LegendNANA
18:00 13.4 7.9 69 3 10   99.07     LegendNANA
19:00 12.4 8.7 78 5 10   99.10     LegendNANA
20:00 12.0 9.1 82 4 6   99.11     LegendNANA
21:00 11.9 8.9 82 2 7   99.07     LegendNANA
22:00 10.7 7.7 82 1 19   98.95     LegendNANA
23:00 10.5 7.3 80 2 10   98.99     LegendNANA

Notes on Data Quality.

Legend

  • E = Estimated
  • M = Missing
  • NA = Not Available
  • ‡ = Partner data that is not subject to review by the National Climate Archives
Date modified: